Goshen, IN

2:10 AM EDT on October 24, 2017 (GMT -0400)
Goshen Municipal

Weather History for KGSH - October, 2011

Change the Weather History Date:

Wednesday, October 19, 2011

  Actual Average Record
Temperature  
Mean Temperature 46 °F -  
Max Temperature 48 °F 58 °F 86 °F (1953)
Min Temperature 44 °F 39 °F 27 °F (1948)
Degree Days  
Heating Degree Days 19    
Moisture  
Dew Point 43 °F    
Average Humidity 90    
Maximum Humidity 93    
Minimum Humidity 86    
Precipitation  
Precipitation 1.85 in - - ()
Sea Level Pressure  
Sea Level Pressure 29.56 in    
Wind  
Wind Speed 11 mph (North)    
Max Wind Speed 22 mph    
Max Gust Speed 33 mph    
Visibility 5 miles    
Events Rain    
Averages and records for this station are not official NWS values.
T = Trace of Precipitation, MM = Missing Value Source: NWS Daily Summary

Daily Weather History Graph

Daily Weather History Graph

Search for Another Location

Airport or City:

Trip Planner

Search our weather history database for the weather conditions in past years. The results will help you decide how hot, cold, wet, or windy it might be!

Date:

Astronomy

Oct. 19, 2011 Rise Set
Actual Time 7:59 AM EDT 6:56 PM EDT
Civil Twilight 7:31 AM EDT 7:24 PM EDT
Nautical Twilight 6:59 AM EDT 7:56 PM EDT
Astronomical Twilight 6:26 AM EDT 8:28 PM EDT
Moon No Moon Rise 2:31 PM EDT (10/19)
Length of Visible Light 11h 53m
Length of Day
10h 56m
Waning Gibbous, 55% of the Moon is Illuminated
Oct 19
Waning Gibbous
Oct 19
Last Quarter
Oct 26
New
Nov 2
First Quarter
Nov 10
Full

Hourly Weather History & Observations

Time (EDT) Temp. Windchill Dew Point Humidity Pressure Visibility Wind Dir Wind Speed Gust Speed Precip Events Conditions
12:53 AM 45.0 °F 41.8 °F 43.0 °F 93% 29.78 in 8.0 mi North 5.8 mph - N/A   Overcast
1:53 AM 45.0 °F 41.8 °F 43.0 °F 93% 29.75 in 10.0 mi North 5.8 mph - N/A   Overcast
2:53 AM 46.0 °F 41.4 °F 42.1 °F 86% 29.73 in 10.0 mi North 9.2 mph - N/A   Overcast
3:13 AM 46.4 °F 42.4 °F 42.8 °F 87% 29.72 in 10.0 mi NNE 8.1 mph - N/A   Overcast
3:53 AM 46.0 °F 41.4 °F 43.0 °F 89% 29.72 in 7.0 mi NNE 9.2 mph 18.4 mph 0.00 in Rain Light Rain
4:11 AM 46.4 °F 41.9 °F 42.8 °F 87% 29.69 in 7.0 mi NNE 9.2 mph - 0.01 in Rain Light Rain
4:53 AM 46.0 °F 43.1 °F 43.0 °F 89% 29.70 in 6.0 mi North 5.8 mph - 0.01 in   Overcast
5:53 AM 46.0 °F 41.9 °F 43.0 °F 89% 29.69 in 5.0 mi North 8.1 mph - 0.08 in Rain Light Rain
6:11 AM 46.4 °F 41.5 °F 42.8 °F 87% 29.66 in 6.0 mi North 10.4 mph - 0.03 in Rain Light Rain
7:02 AM 46.4 °F 41.5 °F 42.8 °F 87% 29.67 in 9.0 mi NNE 10.4 mph 17.3 mph 0.01 in   Overcast
7:53 AM 46.0 °F 39.6 °F 43.0 °F 89% 29.66 in 5.0 mi North 15.0 mph 20.7 mph 0.02 in Rain Light Rain
8:53 AM 45.0 °F 38.9 °F 43.0 °F 93% 29.66 in 3.0 mi North 12.7 mph 18.4 mph 0.02 in Rain Light Rain
9:53 AM 44.1 °F 37.1 °F 42.1 °F 93% 29.64 in 4.0 mi North 15.0 mph 21.9 mph 0.10 in Rain Rain
10:40 AM 44.6 °F 37.8 °F 41.0 °F 87% 29.61 in 6.0 mi North 15.0 mph 26.5 mph 0.07 in Rain Light Rain
10:53 AM 44.1 °F 36.8 °F 41.0 °F 89% 29.61 in 3.0 mi North 16.1 mph 26.5 mph 0.11 in Rain Rain
11:04 AM 44.6 °F 36.1 °F 41.0 °F 87% 29.58 in 2.5 mi North 21.9 mph 33.4 mph 0.04 in Rain Rain
11:11 AM 44.6 °F 37.2 °F 42.8 °F 93% 29.58 in 4.0 mi North 17.3 mph 33.4 mph 0.04 in Rain Light Rain
11:28 AM 44.6 °F 37.4 °F 42.8 °F 93% 29.57 in 5.0 mi North 16.1 mph 27.6 mph 0.05 in Rain Light Rain
11:42 AM 44.6 °F 37.4 °F 42.8 °F 93% 29.56 in 2.5 mi North 16.1 mph 27.6 mph 0.07 in Rain Light Rain
12:04 PM 44.6 °F 37.2 °F 42.8 °F 93% 29.57 in 3.0 mi North 17.3 mph 26.5 mph 0.01 in Rain Light Rain
12:44 PM 44.6 °F 38.1 °F 42.8 °F 93% 29.55 in 2.0 mi North 13.8 mph 21.9 mph 0.03 in   Overcast
1:49 PM 44.6 °F 39.2 °F 42.8 °F 93% 29.53 in 1.8 mi North 10.4 mph - 0.17 in Rain Heavy Rain
1:53 PM 45.0 °F 38.2 °F 43.0 °F 93% 29.53 in 1.5 mi North 15.0 mph - 0.23 in Rain Heavy Rain
2:06 PM 44.6 °F 38.1 °F 42.8 °F 93% 29.51 in 2.0 mi North 13.8 mph - 0.10 in Rain Rain
2:13 PM 44.6 °F 38.1 °F 42.8 °F 93% 29.51 in 2.5 mi North 13.8 mph 20.7 mph 0.12 in Rain Rain
2:17 PM 44.6 °F 38.4 °F 42.8 °F 93% 29.51 in 3.0 mi NNW 12.7 mph - 0.13 in Rain Rain
2:24 PM 44.6 °F 38.4 °F 42.8 °F 93% 29.51 in 6.0 mi North 12.7 mph 19.6 mph 0.14 in Rain Light Rain
2:53 PM 46.0 °F 39.9 °F 43.0 °F 89% 29.50 in 2.5 mi North 13.8 mph 20.7 mph 0.23 in Rain Heavy Rain
3:08 PM 46.4 °F 40.7 °F 44.6 °F 93% 29.48 in 3.0 mi North 12.7 mph 18.4 mph 0.05 in Rain Rain
3:53 PM 46.9 °F - 44.1 °F 90% 29.48 in 3.0 mi North 13.8 mph 18.4 mph 0.19 in Rain Rain
4:12 PM 46.4 °F 40.7 °F 44.6 °F 93% 29.46 in 3.0 mi North 12.7 mph 20.7 mph 0.07 in Rain Rain
4:19 PM 46.4 °F 40.7 °F 44.6 °F 93% 29.46 in 2.5 mi North 12.7 mph 20.7 mph 0.09 in Rain Rain
4:26 PM 46.4 °F 39.8 °F 44.6 °F 93% 29.47 in 3.0 mi North 16.1 mph 24.2 mph 0.12 in Rain Rain
4:33 PM 46.4 °F 40.7 °F 44.6 °F 93% 29.46 in 2.5 mi North 12.7 mph 21.9 mph 0.15 in Rain Rain
4:43 PM 48.2 °F - 44.6 °F 87% 29.46 in 3.0 mi North 15.0 mph 23.0 mph 0.19 in Rain Rain
4:53 PM 48.0 °F - 45.0 °F 89% 29.47 in 4.0 mi North 15.0 mph 21.9 mph 0.22 in Rain Rain
5:53 PM 48.9 °F - 46.0 °F 90% 29.46 in 8.0 mi North 11.5 mph 19.6 mph 0.05 in Rain Light Rain
6:53 PM 48.9 °F - 45.0 °F 86% 29.45 in 6.0 mi North 12.7 mph 20.7 mph 0.09 in Rain Rain
7:53 PM 46.9 °F - 44.1 °F 90% 29.44 in 7.0 mi North 11.5 mph 20.7 mph 0.08 in Rain Light Rain
8:53 PM 46.0 °F 39.6 °F 43.0 °F 89% 29.42 in 8.0 mi North 15.0 mph 23.0 mph 0.09 in Rain Light Rain
9:53 PM 45.0 °F 37.9 °F 42.1 °F 90% 29.41 in 9.0 mi North 16.1 mph 25.3 mph 0.09 in Rain Light Rain
10:53 PM 45.0 °F 38.5 °F 41.0 °F 86% 29.38 in 8.0 mi North 13.8 mph 26.5 mph 0.12 in Rain Light Rain
11:53 PM 44.1 °F 35.9 °F 41.0 °F 89% 29.34 in 7.0 mi NNW 19.6 mph 29.9 mph 0.12 in Rain Rain